Location: Unspecified
(37.1830°N, 0.0000°E)
Time: 07:27:04
(UTC+00:00)

CZ-6A DEB - Visible Passes

Search period start: 04 April 2026 00:00
Search period end: 14 April 2026 00:00
Orbit: 812 x 828 km, 98.8° (Epoch: 28 March)

Date Brightness Start Highest point End Pass type
(mag) Time Alt. Az. Time Alt. Az. Time Alt. Az.
4 Apr ? 18:44:47 10° S 18:50:06 65° WSW 18:55:29 10° NNW visible
5 Apr ? 20:08:33 10° WSW 20:09:51 11° W 20:11:10 10° WNW visible
6 Apr ? 19:45:09 10° SW 19:48:45 18° W 19:52:23 10° NW visible
7 Apr ? 19:23:07 10° SSW 19:27:43 29° W 19:32:21 10° NW visible
8 Apr ? 19:01:37 10° S 19:06:45 45° W 19:11:55 10° NNW visible
10 Apr ? 20:03:25 10° WSW 20:05:31 12° W 20:07:38 10° WNW visible
11 Apr ? 19:40:33 10° SW 19:44:26 20° W 19:48:20 10° NW visible
12 Apr ? 19:18:39 10° SSW 19:23:24 32° W 19:28:11 10° NW visible
13 Apr ? 18:57:14 10° S 19:02:26 50° W 19:07:41 10° NNW visible
